Location: Marion Hill
(40.7303°N, 80.2959°W)
Time: 06:48:16
(UTC+00:00)

NOSS 3-3 (A) - Pass Details

Date: 29 October 2020
Orbit: 826 x 1387 km, 63.4° (Epoch: 22 November)

Event Time Altitude Azimuth Distance (km) Brightness Sun altitude
Rises 23:23:28 0° 208° (SSW) 3,376 7.4 -12.5°
Reaches altitude 10° 23:25:49 10° 207° (SSW) 2,476 6.6 -12.9°
Maximum altitude 23:31:30 77° 121° (ESE) 936 3.8 -14.0°
Drops below altitude 10° 23:37:54 10° 37° (NE) 2,776 6.0 -15.2°
Enters shadow 23:38:34 - 37° (NE) 3,027 6.2 -15.3°
